Location: ?ern� Novina
(50.6762°N, 14.8696°E)
Time: 16:27:19
(UTC+00:00)

Cosmos 1844 - Pass Details

Date: 03 March 2021
Orbit: 822 x 868 km, 70.9° (Epoch: 13 April)

Event Time Altitude Azimuth Distance (km) Brightness Sun altitude
Rises 18:33:28 0° 328° (NNW) 3,462 7.6 -17.8°
Reaches altitude 10° 18:35:58 10° 326° (NW) 2,517 6.8 -18.2°
Maximum altitude 18:41:42 66° 246° (WSW) 940 4.1 -19.1°
Enters shadow 18:47:05 11° 166° (SSE) 2,384 5.8 -19.9°
